SB KEPS @ AMSAT $ORB09316.N 2Line Orbital Elements 09316.AMSAT
HR AMSAT ORBITAL ELEMENTS FOR AMATEUR SATELLITES IN NASA FORMAT FROM WA5QGD FORT WORTH,TX November 12, 2009 Send Subscribe/unsubscribe to KEPS at http://www.amsat.org/mailman/listinfo/keps BID: ORB09316.N
DECODE 2-LINE ELSETS WITH THE FOLLOWING KEY: 1 AAAAAU 00 0 0 BBBBB.BBBBBBBB .CCCCCCCC 00000-0 00000-0 0 DDDZ 2 AAAAA EEE.EEEE FFF.FFFF GGGGGGG HHH.HHHH III.IIII JJ.JJJJJJJJKKKKKZ KEY: A-CATALOGNUM B-EPOCHTIME C-DECAY D-ELSETNUM E-INCLINATION F-RAAN G-ECCENTRICITY H-ARGPERIGEE I-MNANOM J-MNMOTION K-ORBITNUM Z-CHECKSUM
TO ALL RADIO AMATEURS BT
AO-07 1 07530U 74089B 09316.60839158 -.00000027 00000-0 10000-3 0 6285 2 07530 101.4168 335.7830 0012000 339.0225 021.0348 12.53577024601319 FO-29 1 24278U 96046B 09316.20263448 -.00000130 00000-0 -94442-4 0 1733 2 24278 098.5230 170.1732 0350303 326.8138 031.1457 13.52946326653767 SO-33 1 25509U 98061B 09315.95595759 .00000265 00000-0 38865-4 0 05844 2 25509 031.4338 296.9242 0354495 190.5673 168.7351 14.28272410576976 RS-22 1 27939U 03042A 09316.23670021 .00000124 00000-0 32716-4 0 9360 2 27939 097.9191 185.5224 0014216 028.8807 331.3190 14.63355668327225 VO-52 1 28650U 05017B 09315.68147646 .00000377 00000-0 54287-4 0 3625 2 28650 097.7240 012.2390 0025997 267.8094 092.0133 14.81641882244480 SO-67 1 35870U 09049F 09316.86512067 .00000453 00000-0 22284-4 0 1670 2 35870 097.3646 005.8651 0013356 096.1143 016.5408 15.22847249 8542 AO-16 1 20439U 90005D 09316.42141400 .00000011 00000-0 19643-4 0 7488 2 20439 098.3013 278.2384 0011888 089.5650 270.6906 14.31838724 34364 LO-19 1 20442U 90005G 09315.96511100 .00000067 00000-0 39970-4 0 6607 2 20442 098.2630 284.4865 0012938 088.4720 271.7978 14.32072944 34465 AO-27 1 22825U 93061C 09315.85780367 .00000072 00000-0 45171-4 0 3849 2 22825 098.4567 264.7658 0008251 183.4973 176.6146 14.29278321841002 IO-26 1 22826U 93061D 09315.96193351 .00000015 00000-0 22539-4 0 1177 2 22826 098.4501 265.5543 0008690 179.4261 180.6933 14.29531344841124 GO-32 1 25397U 98043D 09316.13745904 .00000060 00000-0 44553-4 0 376 2 25397 098.3194 330.5057 0001485 140.3035 219.8245 14.23166532589173 NO-44 1 26931U 01043C 09316.04453761 .00000132 00000-0 83999-4 0 3114 2 26931 067.0531 043.4174 0007093 269.7763 090.2526 14.29573216423718 SO-50 1 27607U 02058C 09315.94067873 .00000121 00000-0 40908-4 0 00315 2 27607 064.5585 296.3432 0049517 166.9406 193.3012 14.71473821370416 CO-55 1 27844U 03031E 09315.54271396 .00000044 00000-0 40716-4 0 7096 2 27844 098.7126 322.6361 0010631 078.7951 281.4420 14.20665865330180 CO-57 1 27848U 03031J 09316.73842120 .00000017 00000-0 28250-4 0 6617 2 27848 098.7176 322.8826 0010781 080.2740 279.9650 14.20464232330314 AO-51 1 28375U 04025K 09316.45655738 .00000023 00000-0 19362-4 0 5310 2 28375 098.0536 317.4399 0085120 035.2623 325.4158 14.40658535282305 CO-56 1 28941U 06005C 09297.68475575 .14491492 29743-5 25760-3 0 5565 2 28941 098.0955 138.9518 0011688 319.8691 040.7485 16.46998778207909 GENESAT1 1 29655U 06058C 09316.45524496 .00020267 00000-0 16892-3 0 8595 2 29655 040.0221 332.0438 0003439 192.0299 168.0437 15.69485926165749 CP3 1 31129U 07012N 09316.10881075 .00000140 00000-0 42979-4 0 3236 2 31129 097.9708 001.9617 0102233 186.4593 173.5298 14.52179300136354 CO-65 1 32785U 08021C 09315.83431125 .00000246 00000-0 38097-4 0 5226 2 32785 097.9287 018.4419 0013937 272.5761 087.3841 14.81540461 83308 KKS-1 1 33493U 09002B 09316.83310052 .00000363 00000-0 54102-4 0 9352 2 33493 098.0688 069.8031 0021151 119.5092 240.8233 14.80771556 43460 SOHLA-1 1 33496U 09002E 09316.83122261 .00000072 00000-0 20390-4 0 8996 2 33496 098.0480 063.9069 0006731 160.6824 199.4633 14.69454881 43106 NOAA-10 1 16969U 86073A 09316.62384335 -.00000051 00000-0 -26541-5 0 8336 2 16969 098.6807 342.3815 0012870 121.7074 238.5359 14.27398298204685 NOAA-11 1 19531U 88089A 09316.78138903 .00000023 00000-0 34310-4 0 8483 2 19531 098.7802 044.4096 0012195 046.9875 313.2299 14.14907353 90532 NOAA-12 1 21263U 91032A 09316.76134636 .00000029 00000-0 30957-4 0 3335 2 21263 098.7712 324.9026 0013353 076.1794 284.0866 14.25601042961561 MET-3/5 1 21655U 91056A 09316.89664801 .00000051 00000-0 10000-3 0 6808 2 21655 082.5530 101.4524 0013568 165.3382 194.8137 13.17021533877205 MET-2/21 1 22782U 93055A 09316.42270704 .00000046 00000-0 28045-4 0 6167 2 22782 082.5479 064.4156 0021074 292.7832 067.1110 13.83641257818105 OKEAN-4 1 23317U 94066A 09316.70240888 .00000122 00000-0 12173-4 0 700 2 23317 082.5418 195.8914 0020636 233.9626 125.9702 14.82736517814374 NOAA-14 1 23455U 94089A 09316.79266694 -.00000208 00000-0 -86269-4 0 8274 2 23455 098.8974 033.8614 0010167 126.9784 233.2321 14.13771306766922 NOAA-15 1 25338U 98030A 09316.93231600 .00000148 00000-0 82044-4 0 1531 2 25338 098.5994 302.9903 0010597 350.1782 009.9202 14.24792614597958 RESURS 1 25394U 98043A 09315.97802109 -.00000003 00000-0 16477-4 0 3550 2 25394 098.3231 340.7068 0001926 112.0386 248.0999 14.24190254589430 FENGYUN1 1 25730U 99025A 09315.95309887 .00001118 00000-0 68017-3 0 8972 2 25730 098.7702 281.7849 0021498 153.6663 206.5590 14.08061899541110 OKEAN-0 1 25860U 99039A 09315.99612104 .00000033 00000-0 12320-4 0 8347 2 25860 097.8051 291.4524 0001800 069.3586 290.7822 14.73596496554914 NOAA-16 1 26536U 00055A 09316.90210105 -.00000169 00000-0 -65962-4 0 6334 2 26536 099.1798 324.1933 0010055 220.8753 139.1648 14.12537034471295 NOAA-17 1 27453U 02032A 09316.74185908 .00000146 00000-0 81556-4 0 6266 2 27453 098.4648 010.5492 0012491 053.5318 306.6986 14.24106568383891 NOAA-18 1 28654U 05018A 09316.78886042 -.00000118 00000-0 -40616-4 0 1121 2 28654 098.9238 258.9773 0013748 306.6553 053.3359 14.11300520230918 NOAA-19 1 33591U 09005A 09316.80087611 -.00000089 00000-0 -25364-4 0 3183 2 33591 098.7629 258.8020 0014006 178.7071 181.4133 14.11000157 39396 HUBBLE 1 20580U 90037B 09316.14012007 .00000368 00000-0 15401-4 0 4759 2 20580 028.4700 216.6501 0003288 057.2556 302.8388 15.00852723872103 ISS 1 25544U 98067A 09317.03604006 .00027475 00000-0 17450-3 0 9758 2 25544 051.6431 262.1837 0006334 326.7420 130.2932 15.76252177629405 CO-58 1 28895U 05043F 09315.70712214 .00000039 00000-0 17719-4 0 4396 2 28895 098.0380 202.0196 0016892 246.1717 113.7713 14.59812517215257 FALCON 1 30776U 07006E 09315.93745764 .00000354 00000-0 28562-4 0 06995 2 30776 035.4348 282.9189 0000418 096.8023 263.2748 15.03362038147344 MAST 1 31126U 07012K 09315.69557862 -.00000004 00000-0 94757-5 0 7292 2 31126 097.9696 003.5977 0094733 181.3537 178.7423 14.53528900136465 CAPE1 1 31130U 07012P 09316.08638674 .00000158 00000-0 47236-4 0 7403 2 31130 097.9710 001.8281 0102612 186.7410 173.2414 14.52102425136156 COMPASS 1 32787U 08021E 09316.87821707 .00000312 00000-0 46356-4 0 5155 2 32787 097.9256 019.3078 0014741 269.7174 090.2350 14.81690392 83461 AAUSAT2 1 32788U 08021F 09315.82068403 .00000571 00000-0 79009-4 0 5097 2 32788 097.9266 018.3464 0014036 272.9722 086.9881 14.81819068 83311 DO-64 1 32789U 08021G 09316.17930082 .00000392 00000-0 56287-4 0 5249 2 32789 097.9316 018.9667 0014613 271.2205 088.7333 14.81848340 83360 CO-66 1 32791U 08021J 09316.19578811 .00000085 00000-0 17659-4 0 5050 2 32791 097.9276 018.6639 0015192 270.9144 089.0318 14.81506135 83321 RS-30 1 32953U 08025A 09316.04910034 .00000010 00000-0 00000 0 0 4510 2 32953 082.5017 164.6909 0018161 215.7828 144.2034 12.43003247 66761 TACSAT-3 1 35001U 09028A 09316.79775877 .00003337 00000-0 88091-4 0 1420 2 35001 040.4547 071.5755 0022783 190.0997 169.9362 15.39528408 27259 PHARMSAT 1 35002U 09028B 09316.45141526 .00003242 00000-0 83596-4 0 1365 2 35002 040.4680 072.6332 0025797 191.8307 168.2005 15.40254806 27204 HAWKSAT1 1 35003U 09028C 09315.66528578 .00006308 00000-0 15183-3 0 1434 2 35003 040.4604 076.2060 0025465 190.6189 169.4091 15.41272475 27106 CP6 1 35004U 09028D 09316.37326279 .00007491 00000-0 17834-3 0 1369 2 35004 040.4608 071.9023 0024830 195.8031 164.2031 15.41432580 27203 AEROCUB3 1 35005U 09028E 09316.72001073 .00006898 00000-0 16600-3 0 1394 2 35005 040.4727 070.3296 0025097 195.3429 164.6625 15.41188833 27250 DRAGNSAT 1 35690U 09038B 09316.19745205 .00048992 00000-0 19030-3 0 1030 2 35690 051.6390 259.6437 0006193 107.7606 252.4032 15.86613341 16587 POLLUX 1 35693U 09038E 09315.86516791 .00042022 00000-0 17277-3 0 1064 2 35693 051.6393 261.9400 0005526 074.5812 285.5876 15.85514762 16497 CASTOR 1 35694U 09038F 09316.13087104 .00020172 00000-0 96401-4 0 986 2 35694 051.6415 261.4970 0005567 072.0828 288.0751 15.82782397 16527 METEOR-M 1 35865U 09049A 09316.38940474 .00000176 00000-0 10000-3 0 525 2 35865 098.7914 006.3905 0001449 269.1993 090.8996 14.21827380 7911 STERKH-2 1 35866U 09049B 09316.37100179 .00000178 00000-0 10000-3 0 572 2 35866 098.7923 006.4223 0002391 272.1129 087.9766 14.22300318 7918 FREGAT-I 1 35867U 09049C 09316.45368876 .00002269 00000-0 10000-3 0 643 2 35867 097.3660 005.4709 0011781 092.5373 267.7116 15.22761220 8482 /EX